Wind_Speed
6 6 6 6 6 6 6 6 6 6 7 7 8 8 8 7 7 7 7 8 8 8 8 8 7 7 7 7 6 6 6 6 6 6 6 6 6 6 6 6 5 5 5
4 5 5 5 5 5 5 5 5 5 6 6 7 7 7 7 7 7 7 7 7 7 7 7 7 7 7 6 6 6 6 6 5 6 6 6 6 6 5 5 5 5 5
3 4 4 4 4 4 4 5 5 5 6 6 6 6 6 6 6 6 7 7 6 6 6 6 6 6 6 6 6 5 5 5 5 5 6 5 5 5 5 4 4 4 4
2 2 3 3 4 4 4 5 5 5 6 6 5 5 5 5 5 6 6 6 6 6 5 5 5 5 5 5 5 5 4 4 4 4 5 5 4 4 4 4 4 4 4
1 2 2 3 3 4 4 4 5 5 6 5 5 4 4 4 5 5 5 5 5 5 5 5 5 5 4 4 4 4 4 3 3 3 4 4 4 4 4 4 3 3 3
1 2 2 3 3 4 4 4 5 5 5 5 5 4 4 4 4 5 5 5 5 5 5 5 5 4 4 3 3 3 3 2 3 2 3 3 3 3 3 3 3 2 3
2 2 2 2 3 4 4 4 5 6 5 5 5 4 3 4 4 4 4 4 4 4 4 4 3 3 2 2 2 2 2 2 2 2 2 2 2 2 3 2 2 2 2
2 2 2 3 3 4 5 5 5 6 6 6 5 4 3 3 3 3 3 3 3 3 3 3 3 2 2 1 1 2 2 2 2 2 2 2 2 2 2 2 2 1 1
3 3 3 3 4 4 4 5 6 6 6 6 5 4 3 2 3 3 3 3 3 3 2 2 2 2 1 1 1 1 1 1 2 2 2 2 2 2 2 2 2 1 1
3 3 3 4 4 5 5 6 6 6 6 6 5 4 3 2 2 2 2 2 2 2 2 2 2 1 1 1 1 1 2 2 2 2 2 2 2 2 2 2 2 1 1
3 4 4 4 5 6 6 6 6 7 6 6 6 5 4 3 2 2 1 1 1 1 2 2 2 1 1 1 1 1 2 2 2 2 2 2 2 2 2 2 2 2 2
5 5 5 5 5 6 7 7 7 7 7 7 6 6 4 3 2 2 1 1 1 1 2 2 2 1 1 1 1 1 2 2 2 3 3 3 2 2 2 2 1 2 2
6 6 6 6 6 6 7 8 8 8 8 8 7 6 5 4 3 2 2 2 1 0 1 1 1 1 1 1 1 2 2 2 2 2 2 3 2 1 2 2 1 2 2
7 7 6 5 6 7 8 9 9 9 8 8 7 6 6 4 3 2 2 2 2 1 0 0 1 1 1 1 1 1 1 1 2 1 1 2 2 1 1 2 2 2 2
8 8 7 6 7 8 9 9 10 10 9 8 7 7 7 5 4 4 3 2 2 2 2 1 1 1 1 1 1 1 1 1 1 1 2 2 2 1 1 1 1 1 1
9 8 8 8 9 9 10 10 10 10 10 9 8 8 7 6 6 5 4 3 3 3 3 2 2 2 2 1 1 1 1 1 2 2 2 2 2 1 0 0 0 0 1
10 9 9 8 8 9 10 11 11 11 11 10 9 9 8 8 7 6 5 5 5 4 4 3 3 2 2 2 1 1 1 1 1 1 1 2 2 2 1 1 0 0 0
11 10 10 10 9 10 10 11 11 11 11 11 11 10 9 9 8 8 7 7 6 5 5 5 4 3 3 2 2 1 1 1 1 1 1 1 2 2 2 1 1 1 1
12 12 11 11 10 10 10 11 12 13 13 12 12 11 11 11 10 9 9 9 8 7 6 6 5 4 4 3 3 2 1 1 1 1 0 1 1 1 1 1 1 1 1
13 12 12 11 11 10 10 10 11 12 13 13 13 12 12 12 12 11 10 10 10 8 8 7 6 5 5 4 4 4 3 2 2 1 1 0 0 1 1 1 2 2 2
13 12 11 11 11 10 10 10 10 11 13 13 13 13 13 13 13 13 12 12 10 9 9 8 7 6 6 5 5 5 4 3 3 2 2 1 1 1 2 2 2 3 3
12 11 11 11 11 11 11 10 11 12 12 12 13 13 13 13 14 14 14 13 12 10 10 9 9 8 8 7 6 6 6 5 4 3 3 3 3 3 3 3 3 3 3
11 10 10 11 11 11 11 11 12 12 12 12 13 14 14 15 15 14 15 15 14 13 12 11 11 10 10 9 8 8 8 7 6 5 4 4 4 4 5 5 4 4 4
11 11 11 11 11 11 11 12 13 12 13 13 14 14 15 15 16 16 16 16 15 15 14 14 13 13 12 11 10 10 10 9 8 7 6 6 6 7 7 6 6 5 5
12 11 12 12 12 11 11 12 12 12 12 13 14 14 15 15 16 16 16 16 17 17 16 16 16 15 14 13 12 12 11 11 10 10 9 8 9 9 9 8 8 8 8
12 11 11 12 12 12 12 12 12 12 13 13 14 15 16 15 16 16 16 17 17 17 17 17 17 16 15 15 14 13 13 13 12 12 12 11 11 11 11 10 10 10 10
Wind_Direction
120 122 122 125 127 128 135 140 141 139 139 135 130 125 119 114 110 106 105 103 100 99 98 95 93 90 90 90 90 91 91 92 92 91 94 95 94 92 87 87 89 94 98
123 130 133 133 136 139 145 152 152 151 151 145 138 131 124 119 114 111 109 104 101 100 99 95 94 91 89 88 88 89 92 93 93 91 92 91 93 90 85 88 87 93 93
128 135 146 148 149 154 157 164 167 167 162 155 146 138 130 123 117 115 112 107 104 101 99 98 96 93 91 89 87 87 90 90 93 90 91 86 89 88 87 86 86 88 87
148 149 158 158 159 166 171 177 181 176 170 164 154 144 137 130 123 119 113 108 103 101 101 100 98 96 93 91 89 87 88 85 86 90 91 90 90 89 87 81 81 88 87
189 176 177 176 173 181 189 192 191 184 178 173 163 152 143 135 130 123 115 107 103 104 104 101 100 99 98 98 95 89 88 82 80 83 86 85 86 87 83 78 76 88 87
226 205 191 189 189 191 196 196 195 191 187 183 173 162 151 143 137 125 114 106 104 105 105 101 101 103 105 106 106 94 84 71 67 58 74 78 80 83 79 74 74 85 96
244 220 208 202 202 200 198 200 204 202 200 197 188 176 167 156 134 120 115 107 105 104 104 103 100 102 107 109 103 95 79 63 60 55 64 78 79 80 72 73 69 77 99
249 239 226 217 210 200 204 211 213 213 211 207 201 195 183 159 142 127 121 113 103 98 102 101 88 92 112 117 110 96 80 66 60 56 56 70 79 70 61 58 51 51 103
251 257 248 231 220 212 212 220 223 219 216 215 214 211 204 189 166 145 129 117 103 98 99 100 82 88 98 132 125 85 64 76 74 61 50 55 63 61 52 44 39 51 109
259 257 260 245 230 221 221 227 228 225 222 221 221 221 222 218 194 166 149 123 109 96 85 86 78 93 98 113 108 79 74 82 69 54 43 42 53 55 44 44 46 64 91
281 266 261 251 238 233 228 231 231 229 228 230 227 228 227 233 219 192 172 142 118 84 73 74 62 76 63 78 103 83 56 72 58 54 41 40 48 55 49 50 52 62 70
295 287 274 258 246 239 234 236 237 236 234 237 237 234 231 236 233 218 207 182 130 84 70 68 62 54 55 59 69 62 54 65 54 45 35 32 38 61 65 60 73 71 67
302 296 283 265 259 249 239 240 240 240 238 240 245 240 239 242 243 240 231 226 217 94 78 75 68 50 78 65 47 43 51 66 55 49 19 26 39 67 80 82 72 75 76
304 299 293 270 264 255 243 243 242 242 243 246 245 246 247 248 250 248 241 240 258 271 249 131 64 46 72 57 48 42 40 64 55 30 16 23 40 77 92 101 91 75 72
295 294 293 277 268 259 249 247 244 241 244 248 253 257 253 252 254 258 254 259 277 278 276 258 278 289 316 327 319 347 14 73 47 32 28 28 43 78 89 97 106 105 97
291 289 291 285 272 263 252 247 246 243 246 249 250 258 256 255 259 267 269 267 273 274 273 266 261 273 284 300 342 9 35 54 46 34 30 35 42 52 56 142 114 124 145
288 285 283 281 276 269 254 248 246 246 247 250 256 257 258 257 261 270 269 269 271 268 266 267 263 267 273 279 297 345 24 63 64 46 39 32 36 41 42 83 104 61 17
288 285 283 279 277 273 258 248 246 251 252 252 256 260 260 258 261 265 269 272 270 265 260 264 267 264 268 273 267 274 324 21 44 60 64 49 42 37 41 55 31 357 333
287 284 282 278 277 274 262 250 249 253 257 257 257 258 257 257 262 266 266 268 264 263 258 262 262 264 266 267 262 255 262 298 347 42 84 88 38 16 2 347 328 326 327
285 283 279 278 277 270 262 253 252 254 257 257 259 258 256 259 262 265 265 265 259 259 256 259 256 261 263 264 259 253 253 259 285 308 332 10 20 10 360 332 319 312 314
284 283 281 282 275 266 263 259 256 258 259 257 262 260 257 258 259 261 261 261 260 257 256 253 253 258 259 259 258 257 257 261 267 268 275 276 290 313 333 322 308 302 300
290 284 280 278 272 270 267 265 265 264 260 262 263 261 261 261 259 259 257 256 257 255 251 251 254 255 256 255 255 254 258 262 264 261 262 271 284 297 311 319 308 295 286
289 287 283 282 276 273 268 267 268 267 264 262 259 261 262 261 257 258 256 254 253 253 251 250 251 252 254 256 259 259 259 260 257 256 261 270 276 285 293 304 303 291 283
284 285 282 280 280 278 274 270 269 265 265 264 261 261 262 262 254 253 253 250 251 251 252 252 253 255 255 257 261 263 263 261 258 257 260 268 273 277 281 283 285 285 280
282 281 282 280 278 275 272 268 268 268 266 265 266 266 266 263 253 249 251 249 249 250 251 251 254 256 256 258 262 264 263 261 259 261 265 269 273 277 277 275 275 278 279
281 282 284 280 279 276 274 274 270 269 268 266 266 266 267 261 252 248 250 250 249 249 251 252 254 256 258 258 261 262 261 261 263 264 267 268 271 276 278 278 277 278 279
Height
5884 5884 5884 5885 5886 5886 5887 5887 5887 5887 5887 5887 5887 5887 5887 5887 5887 5887 5888 5888 5888 5888 5888 5889 5889 5889 5889 5889 5890 5890 5890 5890 5890 5891 5891 5891 5892 5892 5892 5893 5893 5893 5893
5885 5885 5886 5886 5887 5887 5888 5888 5889 5889 5889 5889 5888 5888 5888 5889 5889 5889 5889 5889 5889 5890 5890 5890 5890 5890 5890 5891 5891 5891 5891 5891 5891 5892 5892 5892 5893 5893 5893 5894 5894 5894 5894
5886 5886 5887 5887 5888 5888 5889 5889 5890 5890 5890 5890 5890 5890 5890 5890 5890 5890 5890 5890 5890 5891 5891 5891 5891 5892 5892 5892 5892 5892 5892 5893 5893 5893 5893 5894 5894 5894 5894 5895 5895 5895 5895
5886 5887 5887 5888 5888 5889 5890 5890 5891 5891 5891 5891 5891 5891 5891 5891 5891 5891 5891 5891 5892 5892 5892 5892 5892 5893 5893 5893 5893 5893 5894 5894 5894 5894 5894 5895 5895 5895 5895 5896 5896 5896 5896
5887 5887 5888 5888 5889 5890 5890 5891 5891 5892 5892 5892 5892 5892 5892 5892 5892 5892 5892 5892 5893 5893 5893 5893 5893 5894 5894 5894 5894 5895 5895 5895 5895 5895 5895 5896 5896 5896 5896 5897 5897 5897 5897
5888 5888 5888 5889 5889 5890 5891 5891 5892 5892 5892 5893 5893 5893 5893 5893 5893 5893 5893 5893 5894 5894 5894 5894 5894 5894 5895 5895 5895 5895 5896 5896 5896 5896 5896 5897 5897 5897 5897 5897 5897 5898 5898
5888 5888 5888 5889 5890 5890 5891 5892 5893 5893 5893 5894 5894 5894 5894 5894 5894 5894 5894 5894 5894 5895 5895 5895 5895 5895 5895 5896 5896 5896 5896 5896 5897 5896 5897 5897 5897 5897 5898 5898 5898 5899 5899
5888 5889 5889 5889 5890 5891 5891 5892 5893 5893 5894 5894 5895 5895 5895 5895 5895 5895 5895 5895 5895 5896 5896 5896 5896 5896 5896 5896 5896 5897 5897 5897 5897 5897 5897 5897 5898 5898 5898 5899 5899 5899 5900
5888 5889 5889 5889 5890 5891 5892 5892 5893 5894 5894 5895 5895 5895 5896 5896 5896 5896 5896 5896 5896 5896 5896 5896 5896 5896 5896 5896 5897 5897 5897 5897 5898 5898 5898 5898 5898 5899 5899 5899 5900 5900 5900
5888 5889 5889 5889 5890 5891 5892 5892 5893 5894 5894 5895 5895 5896 5896 5896 5896 5896 5897 5897 5897 5897 5897 5897 5897 5897 5897 5897 5897 5897 5897 5898 5898 5898 5898 5898 5899 5899 5899 5900 5900 5900 5901
5888 5889 5889 5889 5890 5890 5891 5892 5893 5894 5894 5895 5896 5896 5896 5897 5897 5897 5897 5897 5898 5897 5897 5897 5897 5897 5897 5897 5898 5898 5898 5898 5898 5898 5899 5899 5899 5899 5900 5900 5901 5901 5901
5888 5888 5888 5888 5889 5890 5891 5892 5893 5894 5894 5895 5896 5896 5897 5897 5898 5898 5898 5898 5898 5898 5898 5898 5898 5898 5898 5898 5898 5898 5899 5899 5899 5899 5899 5899 5899 5900 5900 5901 5901 5902 5902
5887 5887 5887 5887 5888 5890 5891 5891 5892 5893 5894 5895 5896 5896 5897 5898 5898 5898 5898 5899 5899 5899 5899 5899 5898 5898 5898 5898 5899 5899 5899 5899 5899 5898 5899 5900 5900 5900 5900 5901 5902 5902 5902
5886 5886 5886 5887 5887 5889 5890 5891 5891 5893 5894 5895 5896 5896 5897 5898 5898 5899 5899 5899 5899 5899 5899 5899 5899 5899 5899 5899 5899 5899 5899 5899 5899 5899 5899 5900 5900 5900 5901 5901 5902 5902 5903
5885 5885 5885 5886 5886 5887 5888 5889 5890 5891 5893 5894 5895 5896 5897 5898 5898 5898 5899 5899 5899 5899 5900 5900 5900 5900 5900 5900 5900 5900 5900 5900 5899 5899 5900 5900 5900 5901 5901 5901 5902 5902 5903
5884 5884 5884 5885 5885 5886 5887 5888 5889 5891 5892 5893 5894 5895 5896 5897 5898 5898 5899 5899 5899 5900 5900 5900 5900 5900 5900 5900 5900 5900 5900 5900 5900 5899 5900 5900 5901 5901 5901 5902 5902 5903 5903
5883 5883 5883 5883 5884 5884 5885 5886 5888 5889 5891 5892 5893 5894 5895 5896 5897 5898 5898 5899 5899 5899 5900 5900 5900 5900 5900 5900 5900 5900 5900 5900 5900 5900 5900 5901 5901 5901 5901 5902 5902 5903 5903
5881 5881 5882 5882 5882 5883 5883 5885 5886 5888 5889 5891 5892 5893 5894 5895 5896 5897 5898 5898 5899 5899 5899 5899 5900 5900 5900 5900 5900 5900 5900 5900 5900 5900 5900 5901 5901 5901 5901 5902 5902 5902 5903
5880 5880 5880 5880 5881 5881 5881 5882 5884 5886 5888 5889 5890 5892 5892 5893 5894 5895 5896 5897 5898 5898 5899 5899 5899 5899 5899 5900 5900 5900 5900 5900 5900 5900 5901 5901 5901 5902 5902 5902 5902 5902 5902
5878 5878 5878 5878 5879 5879 5880 5881 5882 5884 5885 5887 5888 5889 5890 5891 5893 5894 5895 5896 5896 5897 5898 5898 5898 5898 5899 5899 5900 5900 5900 5900 5900 5901 5901 5901 5901 5901 5901 5901 5901 5901 5902
5876 5876 5876 5876 5876 5877 5878 5879 5880 5881 5883 5884 5885 5887 5888 5889 5890 5891 5893 5894 5895 5896 5896 5897 5897 5898 5898 5898 5899 5899 5899 5900 5900 5900 5900 5901 5901 5901 5901 5901 5901 5901 5901
5873 5874 5874 5874 5874 5875 5876 5877 5878 5879 5880 5881 5883 5884 5885 5886 5888 5889 5890 5891 5892 5893 5894 5895 5896 5896 5897 5897 5898 5898 5899 5899 5899 5900 5900 5900 5900 5900 5900 5900 5900 5900 5900
5871 5871 5872 5872 5872 5872 5873 5874 5875 5876 5877 5879 5880 5881 5882 5883 5884 5886 5887 5888 5890 5891 5892 5893 5894 5895 5895 5896 5896 5897 5897 5898 5898 5899 5899 5899 5899 5899 5899 5899 5899 5899 5899
5869 5869 5870 5870 5870 5870 5870 5871 5872 5873 5874 5875 5876 5877 5879 5879 5881 5882 5883 5885 5887 5888 5890 5891 5891 5892 5893 5894 5894 5895 5896 5896 5896 5897 5897 5897 5897 5897 5897 5897 5897 5897 5898
5867 5867 5867 5867 5867 5868 5868 5869 5870 5870 5871 5872 5873 5874 5875 5876 5877 5878 5880 5881 5883 5885 5887 5888 5889 5889 5890 5891 5892 5892 5893 5893 5894 5895 5895 5896 5896 5895 5895 5895 5895 5896 5896
5865 5865 5865 5865 5864 5865 5866 5866 5867 5868 5868 5869 5870 5870 5871 5872 5873 5875 5876 5878 5880 5882 5883 5884 5885 5886 5887 5888 5888 5889 5890 5891 5892 5892 5893 5893 5893 5893 5893 5893 5893 5893 5893